Location: Mount Graham
(32.7016°N, 109.8912°W)
Time: 17:46:45
(UTC-07:00)

Daily predictions for brighter satellites

Satellite Brightness Start Highest point End
(mag) Time Altitude Azimuth Time Altitude Azimuth Time Altitude Azimuth
H-2A ROCKET BODY 4.4 17:42:14 10° W 17:48:04 60° S 18:21:00 10° ESE
Lacrosse 5 2.0 18:29:44 10° NW 18:34:49 84° SW 18:39:51 10° SE
Cosmos 2297 Rocket 3.1 18:29:31 10° SW 18:35:02 54° WNW 18:40:35 10° N
MOS 1 4.3 18:29:37 10° SSE 18:35:09 61° ENE 18:40:44 10° N
ERS-2 3.6 18:33:26 10° ESE 18:35:55 17° ENE 18:38:25 10° NNE
COSMO-SKYMED 1 3.4 18:36:49 10° N 18:41:05 57° WNW 18:45:19 10° SSW
CZ-4 R/B 3.3 18:41:11 10° SSW 18:44:55 35° W 18:48:37 10° NNW
Cosmos 158 Rocket 3.8 18:42:37 10° SSW 18:47:31 88° ESE 18:52:24 10° NNE
Meteor 1-14 Rocket 4.3 18:41:55 10° S 18:47:38 74° E 18:53:30 10° NNE
Meteor 1-20 Rocket 4.3 18:42:20 10° S 18:47:53 60° E 18:53:33 10° NNE
Cosmos 2056 Rocket 4.4 18:42:42 10° NNW 18:48:02 58° WSW 18:53:18 10° S
FALCON 9 R/B 3.8 18:42:04 10° W 18:48:13 81° N 19:10:12 14° E
Cosmos 1464 Rocket 4.3 18:42:45 10° N 18:48:34 44° E 18:54:22 10° SSE
Cosmos 1812 2.7 18:47:20 10° N 18:51:12 65° E 18:55:01 10° SSE
Iridium 4 Rocket 3.7 18:47:01 10° NNE 18:51:17 34° E 18:55:15 10° SSE
DELTA 2 R/B (2) 3.0 18:51:04 10° WNW 18:52:47 57° SSW 18:54:04 15° SE
Cosmos 1452 Rocket 3.6 18:48:59 10° N 18:54:10 57° ENE 18:59:19 10° SSE
Cosmos 1048 Rocket 4.0 18:48:57 10° S 18:54:14 65° ESE 18:59:28 10° NNE
SPOT 3 Rocket 3.5 18:51:49 10° SSE 18:56:59 75° ENE 19:02:12 10° N
MOS 1-B Rocket 4.3 18:50:48 10° S 18:57:26 79° WSW 19:03:17 10° NNW
Aureole 3 4.5 18:52:56 10° S 18:59:13 73° W 19:04:09 10° N
Cosmos 1072 Rocket 4.5 18:54:17 10° N 19:00:28 63° E 19:06:42 10° SSE
Okean 3 3.3 18:58:05 10° N 19:02:15 74° E 19:06:26 10° S
Cosmos 1674 Rocket 3.6 18:59:13 10° N 19:03:34 83° W 19:07:52 10° S
Cosmos 2263 Rocket 3.5 19:00:55 10° SE 19:04:14 16° E 19:04:56 16° E
OAO 2 Rocket 3.3 19:00:20 10° W 19:05:18 76° N 19:08:56 18° ENE
Cosmos 1908 Rocket 3.6 19:03:15 10° S 19:07:42 87° W 19:12:12 10° N
Cosmos 921 Rocket 3.7 19:06:45 10° N 19:10:51 34° ENE 19:14:53 10° SE
FREGAT/IRIS 2.6 19:08:14 10° SSE 19:11:06 50° ENE 19:13:59 10° N
Tiangong 2 1.0 19:09:56 10° NW 19:13:06 69° NNE 19:14:35 28° ESE
Cosmos 1420 Rocket 3.9 19:08:26 10° NNW 19:13:43 71° ENE 19:19:00 10° SSE
Meteor 1-18 Rocket 4.1 19:08:55 10° N 19:14:29 72° E 19:20:00 10° SSE
Cosmos 1437 Rocket 2.7 19:14:04 10° S 19:18:03 70° E 19:22:08 10° NNE
Cosmos 2034 Rocket 4.0 19:18:29 10° N 19:24:50 66° E 19:31:07 10° SSE
Cosmos 2227 4.1 19:19:43 10° S 19:25:25 72° ESE 19:31:07 10° NNE
Cosmos 1891 Rocket 4.4 19:19:32 10° N 19:25:45 81° E 19:31:48 10° S
Cosmos 44 Rocket 3.3 19:22:50 10° NNW 19:27:55 77° ENE 19:32:57 11° SSE
Meteor 1-11 Rocket 4.0 19:23:19 10° SSE 19:28:28 41° E 19:33:44 10° NNE
ARGOS Delta rocket 3.7 19:25:14 10° NNE 19:29:55 60° E 19:34:22 10° S
Meteor 1-4 Rocket 3.1 19:27:42 10° SSE 19:30:10 35° SE 19:30:10 35° SE
SeaSat 1 3.1 19:30:03 30° E 19:31:01 33° ENE 19:35:24 10° N
Cosmos 1816 Rocket 4.4 19:28:08 10° S 19:34:25 68° E 19:40:44 10° NNE
Gbstr 26 Del rocket 3.1 19:32:20 10° WSW 19:35:59 56° NW 19:37:47 27° NNE
Cosmos 1975 Rocket 3.0 19:34:52 10° N 19:39:17 66° E 19:43:43 10° SSE
Envisat 3.0 19:35:11 10° SSE 19:40:06 55° ENE 19:45:04 10° N
HJ-1C 3.4 19:36:55 10° S 19:40:20 82° WSW 19:43:45 10° NNW
Resurs 01 Rocket 3.2 19:43:36 20° NNE 19:43:36 20° NNE 19:45:17 10° N
COSMOS 2455 2.8 19:39:17 10° S 19:45:10 61° ESE 19:48:53 23° NE
USA 215 3.6 19:40:22 10° NE 19:46:50 65° NW 19:53:17 10° SW
Sakura Rocket 4.2 19:42:57 10° WSW 19:48:31 62° S 19:51:23 37° ESE
Thor Agena Rocket 3.7 19:47:15 10° N 19:52:17 69° WNW 19:57:17 10° SSW
Cosmos 494 Rocket 3.8 19:49:17 10° SSW 19:54:30 86° ESE 19:59:19 12° NNE
CZ-4C R/B 4.1 19:50:42 10° N 19:55:55 23° NE 19:55:55 23° NE
Cosmos 1110 Rocket 4.3 19:55:07 10° N 19:59:34 48° NE 19:59:34 48° NE
SJ-6B 3.6 19:58:56 10° S 20:02:34 49° W 20:06:16 10° NNW
SL-16 R/B 4.0 20:10:56 10° NW 20:15:49 30° WSW 20:20:40 10° SSW
Cosmos 1603 3.9 20:29:06 10° NNW 20:34:01 64° WNW 20:34:01 64° WNW
H-2A R/B 4.3 20:34:59 10° SW 20:36:15 13° SSW 20:36:15 13° SSW
Cosmos 2263 Rocket 3.0 20:42:14 10° SW 20:46:47 47° W 20:46:47 47° W
CZ-3C R/B 3.6 20:53:41 10° SW 21:45:40 - E 20:58:15 41° S
CZ-4C R/B 4.4 21:38:01 10° NNW 21:41:09 29° NW 21:41:09 29° NW
